Location: Biltmore Gardens
(41.6070°N, 83.4666°W)
Time: 14:25:57
(UTC+00:00)

Cosmos 2263 - Pass Details

Date: 14 July 2020
Orbit: 830 x 866 km, 70.9° (Epoch: 04 August)

Event Time Altitude Azimuth Distance (km) Brightness Sun altitude
Rises 05:10:00 0° 332° (NNW) 3,441 8.5 -26.4°
Reaches altitude 10° 05:12:28 10° 330° (NNW) 2,505 7.5 -26.5°
Maximum altitude 05:18:09 63° 250° (WSW) 960 4.3 -26.6°
Enters shadow 05:18:22 63° 239° (WSW) 963 4.3 -26.6°
